Location: Piotrkow Trybunalski
(51.4000°N, 19.6830°E)
Time: 05:30:56
(UTC+02:00)

A-11 Canister half - Pass Details

Date: 06 February 2023
Orbit: 1526 x 1682 km, 47.3° (Epoch: 25 March)

Event Time Altitude Azimuth Distance (km) Brightness Sun altitude
Rises 04:47:40 0° 222° (SW) 4,675 - -22.7°
Reaches altitude 10° 04:50:53 10° 216° (SW) 3,689 - -22.2°
Exits shadow 04:51:13 11° 215° (SW) 3,588 10.6 -22.2°
Maximum altitude 04:59:26 44° 149° (SSE) 2,019 9.8 -20.9°
Drops below altitude 10° 05:08:05 10° 81° (E) 3,730 12.2 -19.5°
Sets 05:11:20 0° 76° (ENE) 4,731 13.0 -19.0°
